Weather History for KJYL - April, 2013

Change the Weather History Date:

Saturday, April 20, 2013

  Actual Average (KSAV) Record (KSAV)
Temperature  
Mean Temperature 59 °F 66 °F  
Max Temperature 68 °F 79 °F 94 °F (1925)
Min Temperature 50 °F 55 °F 34 °F (1983)
Degree Days  
Heating Degree Days 6 2  
Month to date heating degree days 62  
Since 1 July heating degree days 1789  
Cooling Degree Days 0 3  
Month to date cooling degree days 51  
Year to date cooling degree days 93  
Growing Degree Days 9 (Base 50)    
Moisture  
Dew Point 51 °F    
Average Humidity 80    
Maximum Humidity 99    
Minimum Humidity 46    
Precipitation  
Precipitation 0.00 in 0.11 in 1.47 in (1912)
Month to date precipitation 2.15  
Year to date precipitation 12.36  
Sea Level Pressure  
Sea Level Pressure 30.13 in    
Wind  
Wind Speed 6 mph (NNW)    
Max Wind Speed 13 mph    
Max Gust Speed 18 mph    
Visibility 10 miles    
Events Rain    
T = Trace of Precipitation, MM = Missing Value Source: NWS Daily Summary

Daily Weather History Graph

Daily Weather History Graph

Search for Another Location

Airport or City:

Trip Planner

Search our weather history database for the weather conditions in past years. The results will help you decide how hot, cold, wet, or windy it might be!

Date:

Astronomy

Apr. 20, 2013 Rise Set
Actual Time 6:50 AM EDT 8:00 PM EDT
Civil Twilight 6:25 AM EDT 8:25 PM EDT
Nautical Twilight 5:54 AM EDT 8:56 PM EDT
Astronomical Twilight 5:23 AM EDT 9:27 PM EDT
Moon 2:59 PM EDT (4/20) 3:21 AM EDT (4/20)
Length of Visible Light 14h 00m
Length of Day
13h 09m
Waxing Gibbous, 71% of the Moon is Illuminated
Apr 20
Waxing Gibbous
Apr 25
Full
May 2
Last Quarter
May 9
New
May 18
First Quarter

Hourly Weather History & Observations

Time (EDT) Temp. Dew Point Humidity Pressure Visibility Wind Dir Wind Speed Gust Speed Precip Events Conditions
12:15 AM 59.0 °F 58.8 °F 99% 30.03 in 7.0 mi West 4.6 mph - N/A Rain Rain
12:35 AM 57.4 °F 55.4 °F 93% 30.03 in 10.0 mi NW 12.7 mph - N/A Rain Light Rain
12:55 AM 55.8 °F 53.6 °F 92% 30.04 in 10.0 mi NW 10.4 mph 16.1 mph N/A   Overcast
1:15 AM 54.9 °F 52.0 °F 90% 30.04 in 10.0 mi NW 8.1 mph - N/A Rain Rain
1:35 AM 54.5 °F 52.0 °F 91% 30.04 in 10.0 mi NW 8.1 mph - N/A Rain Light Rain
1:55 AM 54.3 °F 52.7 °F 94% 30.05 in 10.0 mi WNW 5.8 mph - N/A Rain Light Rain
2:15 AM 54.0 °F 52.9 °F 96% 30.03 in 10.0 mi WNW 3.5 mph - N/A Rain Rain
2:35 AM 54.0 °F 53.2 °F 97% 30.03 in 10.0 mi Calm Calm - N/A Rain Light Rain
2:55 AM 53.2 °F 52.9 °F 99% 30.02 in 10.0 mi West 4.6 mph - N/A Rain Rain
3:15 AM 53.6 °F 53.2 °F 99% 30.02 in 10.0 mi West 4.6 mph - N/A Rain Light Rain
3:35 AM 53.8 °F 53.1 °F 97% 30.03 in 10.0 mi WNW 5.8 mph - N/A   Overcast
3:55 AM 53.6 °F 52.5 °F 96% 30.03 in 10.0 mi WNW 5.8 mph - N/A Rain Light Rain
4:15 AM 53.2 °F 52.2 °F 96% 30.03 in 10.0 mi WNW 4.6 mph - N/A   Mostly Cloudy
4:35 AM 53.1 °F 52.2 °F 97% 30.05 in 10.0 mi West 4.6 mph - N/A   Scattered Clouds
4:55 AM 52.9 °F 52.0 °F 97% 30.04 in 10.0 mi NW 6.9 mph - N/A   Clear
5:15 AM 52.7 °F 51.8 °F 97% 30.06 in 10.0 mi WNW 5.8 mph - N/A   Clear
5:35 AM 52.3 °F 51.1 °F 95% 30.06 in 10.0 mi WNW 6.9 mph - N/A   Clear
5:55 AM 52.2 °F 50.9 °F 95% 30.08 in 10.0 mi WNW 5.8 mph - N/A   Clear
6:15 AM 51.8 °F 50.7 °F 96% 30.08 in 10.0 mi NW 6.9 mph - N/A   Clear
6:35 AM 51.4 °F 49.8 °F 94% 30.08 in 10.0 mi NW 8.1 mph - N/A   Clear
6:55 AM 51.1 °F 49.3 °F 94% 30.09 in 10.0 mi NW 9.2 mph - N/A   Clear
7:15 AM 50.9 °F 49.1 °F 94% 30.10 in 10.0 mi NW 8.1 mph - N/A   Clear
7:35 AM 50.7 °F 49.1 °F 94% 30.10 in 10.0 mi NW 5.8 mph - N/A   Clear
7:55 AM 50.5 °F 48.7 °F 94% 30.12 in 10.0 mi NW 6.9 mph - N/A   Clear
8:15 AM 50.9 °F 48.6 °F 92% 30.12 in 10.0 mi NNW 10.4 mph - N/A   Clear
8:35 AM 50.9 °F 48.2 °F 90% 30.12 in 10.0 mi NNW 8.1 mph - N/A   Clear
8:55 AM 51.1 °F 48.2 °F 90% 30.12 in 10.0 mi NNW 9.2 mph 18.4 mph N/A   Clear
9:15 AM 51.8 °F 48.2 °F 88% 30.13 in 10.0 mi NNW 9.2 mph 16.1 mph N/A   Clear
9:35 AM 52.3 °F 48.2 °F 86% 30.14 in 10.0 mi NNW 9.2 mph - N/A   Clear
9:55 AM 52.9 °F 47.8 °F 83% 30.15 in 10.0 mi North 6.9 mph - N/A   Clear
10:15 AM 53.6 °F 48.0 °F 81% 30.17 in 10.0 mi NNW 9.2 mph - N/A   Clear
10:35 AM 54.1 °F 47.8 °F 79% 30.17 in 10.0 mi North 6.9 mph - N/A   Clear
10:55 AM 55.8 °F 48.9 °F 78% 30.18 in 10.0 mi North 8.1 mph - N/A   Clear
11:15 AM 56.7 °F 49.1 °F 76% 30.17 in 10.0 mi North 11.5 mph 16.1 mph N/A   Clear
11:35 AM 57.7 °F 49.1 °F 73% 30.17 in 10.0 mi NNE 11.5 mph - N/A   Clear
11:55 AM 59.2 °F 49.1 °F 69% 30.18 in 10.0 mi NE 8.1 mph - N/A   Clear
12:15 PM 61.3 °F 50.7 °F 68% 30.18 in 10.0 mi NNE 6.9 mph 16.1 mph N/A   Clear
12:35 PM 61.2 °F 50.0 °F 67% 30.17 in 10.0 mi ENE 6.9 mph - N/A   Clear
12:55 PM 62.2 °F 51.1 °F 67% 30.17 in 10.0 mi ENE 8.1 mph - N/A   Scattered Clouds
1:15 PM 62.4 °F 50.0 °F 64% 30.17 in 10.0 mi NE 8.1 mph - N/A   Scattered Clouds
1:35 PM 63.0 °F 49.6 °F 62% 30.16 in 10.0 mi NNW 8.1 mph - N/A   Scattered Clouds
1:55 PM 63.5 °F 49.1 °F 59% 30.15 in 10.0 mi North 8.1 mph 16.1 mph N/A   Clear
2:15 PM 64.2 °F 49.6 °F 59% 30.16 in 10.0 mi NNE 3.5 mph - N/A   Clear
2:35 PM 64.8 °F 48.2 °F 55% 30.16 in 10.0 mi North 3.5 mph - N/A   Clear
2:55 PM 64.6 °F 46.0 °F 51% 30.16 in 10.0 mi Calm Calm - N/A   Clear
3:15 PM 65.8 °F 49.5 °F 55% 30.15 in 10.0 mi ENE 3.5 mph - N/A   Clear
3:35 PM 65.5 °F 47.8 °F 53% 30.14 in 10.0 mi WNW 3.5 mph - N/A   Clear
3:55 PM 66.2 °F 48.4 °F 53% 30.13 in 10.0 mi NNE 4.6 mph - N/A   Clear
4:15 PM 66.4 °F 46.9 °F 50% 30.14 in 10.0 mi NNW 5.8 mph - N/A   Clear
4:55 PM 66.9 °F 47.3 °F 49% 30.13 in 10.0 mi NNE 3.5 mph - N/A   Clear
5:15 PM 67.8 °F 47.5 °F 48% 30.13 in 10.0 mi East 5.8 mph - N/A   Clear
5:35 PM 67.3 °F 46.0 °F 46% 30.14 in 10.0 mi North 4.6 mph - N/A   Clear
5:55 PM 68.0 °F 48.9 °F 50% 30.14 in 10.0 mi ENE 8.1 mph - N/A   Clear
6:15 PM 67.3 °F 45.9 °F 46% 30.14 in 10.0 mi North 4.6 mph - N/A   Clear
6:35 PM 67.3 °F 48.0 °F 50% 30.14 in 10.0 mi NE 4.6 mph - N/A   Clear
6:55 PM 67.1 °F 49.1 °F 52% 30.14 in 10.0 mi Calm Calm - N/A   Clear
7:15 PM 66.6 °F 48.7 °F 53% 30.15 in 10.0 mi Calm Calm - N/A   Clear
7:35 PM 65.5 °F 53.4 °F 65% 30.15 in 10.0 mi Calm Calm - N/A   Clear
7:55 PM 60.4 °F 55.2 °F 83% 30.16 in 10.0 mi Calm Calm - N/A   Clear
8:15 PM 59.0 °F 55.0 °F 87% 30.17 in 10.0 mi Calm Calm - N/A   Clear
8:35 PM 57.7 °F 55.8 °F 93% 30.19 in 10.0 mi SE 3.5 mph - N/A   Clear
8:55 PM 58.5 °F 54.5 °F 87% 30.20 in 10.0 mi Calm Calm - N/A   Clear
9:15 PM 57.2 °F 54.9 °F 92% 30.21 in 7.0 mi Calm Calm - N/A   Clear
9:35 PM 56.8 °F 54.5 °F 92% 30.22 in 10.0 mi Calm Calm - N/A   Clear
9:55 PM 56.7 °F 54.7 °F 93% 30.22 in 10.0 mi Calm Calm - N/A   Clear
10:15 PM 56.3 °F 54.1 °F 92% 30.23 in 10.0 mi Calm Calm - N/A   Clear
10:55 PM 54.7 °F 53.8 °F 97% 30.24 in 10.0 mi Calm Calm - N/A   Clear
11:15 PM 54.1 °F 53.6 °F 98% 30.24 in 10.0 mi Calm Calm - N/A   Clear
11:35 PM 54.0 °F 52.7 °F 95% 30.24 in 10.0 mi Calm Calm - N/A   Clear
11:55 PM 53.6 °F 52.0 °F 94% 30.24 in 10.0 mi Calm Calm - N/A   Clear